Regional Weather Roundup
Issued by NWS State College, PA

Home | Current Version | Previous Version | Text Only | Print | Product List | Glossary Off
Versions: 1 2 3 4 5 6 7 8 9 10 11 12 13 14 15 16 17 18 19 20 21 22 23 24 25 26 27 28 29 30 31 32 33 34 35 36 37 38 39 40 41 42 43 44 45 46 47 48 49 50

000
ASUS41 KCTP 261803
RWRCTP

REGIONAL WEATHER ROUNDUP
NATIONAL WEATHER SERVICE STATE COLLEGE PA
200 PM EDT TUE JUL 26 2016

Note: "fair" indicates few or no clouds below 12,000 feet with no
significant weather and/or obstructions to visibility.

* = STATION THAT DOES NOT REPORT PRECIPITATION /E.G. RAIN...SNOW...ETC/
    THUNDER OR FOG.

PAZ002>004-007>009-013>016-020>023-029>032-261900-
WESTERN PENNSYLVANIA

CITY           SKY/WX    TMP DP  RH WIND       PRES   REMARKS
ERIE           SUNNY     76  61  59 W9        30.06S
MEADVILLE      SUNNY     78  59  51 NW3       30.07F
FRANKLIN*      SUNNY     81  57  44 NW13      30.09S
NEW CASTLE     FAIR      84  63  49 NW7       30.06F
BEAVER COUNTY  MOSUNNY   86  64  48 NW9       30.06F
BUTLER*        MOSUNNY   82  64  54 N5        30.08S
PITTSBURGH INT PTSUNNY   84  62  47 VRB6      30.04F
PITTSBURGH     PTSUNNY   86  64  47 W7        30.04F
INDIANA*       MOSUNNY   84  66  54 W8G15     30.08S
LATROBE        PTSUNNY   84  66  54 W7        30.05S
WASHINGTON CO* MOSUNNY   86  64  48 N5        30.06S
$$

PAZ004>006-010>012-017>019-024>028-033>037-041-042-045-046-049>053-261900-
CENTRAL PENNSYLVANIA

CITY           SKY/WX    TMP DP  RH WIND       PRES   REMARKS
BRADFORD       SUNNY     78  59  51 NW7       30.07S
DUBOIS         MOSUNNY   84  59  42 NW10      30.05F
CLEARFIELD     SUNNY     87  58  37 NW13      30.03F
JOHNSTOWN      PTSUNNY   81  60  48 NW9       30.09S
ALTOONA        MOSUNNY   87  60  40 N9G20     30.03F
STATE COLLEGE  MOSUNNY   86  63  45 NW12      30.00F
WILLIAMSPORT   SUNNY     90  60  36 W8        29.92F
SELINSGROVE    MOSUNNY   89  68  49 NW7       29.95F
FT INDIANTOWN  PTSUNNY   87  68  54 VRB5      29.95F
CAPITAL CITY   CLOUDY    91  63  39 W10       29.94F
HARRISBURG     CLOUDY    89  71  55 W5        29.93F HX  95
YORK           CLOUDY    86  69  56 W5        29.96F
$$

PAZ038>040-043-044-047-048-054-055-060>062-067>071-261900-
EASTERN PENNSYLVANIA

CITY           SKY/WX    TMP DP  RH WIND       PRES   REMARKS
SCRANTON       SUNNY     86  62  44 N6        29.95F
MOUNT POCONO   MOSUNNY   80  62  54 NW12      29.99F
ALLENTOWN      MOSUNNY   86  66  51 W9        29.93S
QUAKERTOWN*    PTCLDY    88  66  48 NW5       29.95S
READING        CLOUDY    89  64  43 W13       29.93F
LANCASTER      CLOUDY    88  67  49 NW8       29.95F
COATESVILLE    MOCLDY    86  68  54 NW13G20   29.98S
POTTSTOWN      PTSUNNY   87  66  49 W9        29.95F
BLUE BELL      MOSUNNY   84  64  51 W8        29.92F
DOYLESTOWN     MOSUNNY   87  64  46 W10       29.92F
WILLOW GROVE   NOT AVBL
NORTH PHILA    MOSUNNY   90  64  42 W16       29.93S
PHILADELPHIA   PTSUNNY   91  65  41 NW16G23   29.92S
$$




USA.gov is the U.S. government's official web portal to all federal, state and local government web resources and services.